Observations

Aujourd'hui

  • Température

    Max: 14.2° à 00:04:23

    Moy: 12.4°

    Min: 10.7° à 03:26:41

 

  • Humidité

    Max: 66% à 03:26:41

    Min: 58% à 00:13:13

 

  • Précipitation accumulée

    Aujourd'hui: 0 mm

    Ce mois-ci: 7 mm

    Cette année: 7 mm



HeureTemperaturePoint de roséeHumiditéDir. VentVitesseRafalesPressionPrecip.Precip. Accum.
03:24 10.7°C 4.7°C 66% 0 km/h 0 km/h 1014 hPa 0 mm/hr 0 mm
03:19 10.8°C 4.7°C 66% 0 km/h 0 km/h 1014 hPa 0 mm/hr 0 mm
03:14 10.9°C 4.6°C 65% 0 km/h 0 km/h 1014 hPa 0 mm/hr 0 mm
03:09 10.9°C 4.6°C 65% 0 km/h 0 km/h 1014 hPa 0 mm/hr 0 mm
03:04 10.9°C 4.6°C 65% 0 km/h 0 km/h 1014 hPa 0 mm/hr 0 mm
02:59 11°C 4.5°C 64% 0 km/h 0 km/h 1014 hPa 0 mm/hr 0 mm
02:54 11°C 4.5°C 64% 0 km/h 0 km/h 1014 hPa 0 mm/hr 0 mm
02:49 11.1°C 4.6°C 64% 0 km/h 0 km/h 1014 hPa 0 mm/hr 0 mm
02:44 11.1°C 4.6°C 64% 0 km/h 0 km/h 1014 hPa 0 mm/hr 0 mm
02:39 11.1°C 4.6°C 64% 0 km/h 0 km/h 1014 hPa 0 mm/hr 0 mm
02:34 11.2°C 4.5°C 63% 0 km/h 0 km/h 1014 hPa 0 mm/hr 0 mm
02:29 11.2°C 4.5°C 63% 0 km/h 0 km/h 1014 hPa 0 mm/hr 0 mm
02:24 11.3°C 4.5°C 63% 0 km/h 0 km/h 1014 hPa 0 mm/hr 0 mm
02:19 11.5°C 4.8°C 63% 0 km/h 0 km/h 1014 hPa 0 mm/hr 0 mm
02:14 11.6°C 4.9°C 63% 0 km/h 0 km/h 1014 hPa 0 mm/hr 0 mm
02:09 11.8°C 4.8°C 62% 0 km/h 0 km/h 1014 hPa 0 mm/hr 0 mm
02:04 12°C 5°C 62% 0 km/h 0 km/h 1014 hPa 0 mm/hr 0 mm
01:59 12.1°C 4.9°C 61% 0 km/h 0 km/h 1014 hPa 0 mm/hr 0 mm
01:54 12.3°C 5°C 61% 0 km/h 0 km/h 1014 hPa 0 mm/hr 0 mm
01:49 12.5°C 5.2°C 61% 0 km/h 0 km/h 1014 hPa 0 mm/hr 0 mm
01:44 12.5°C 5.2°C 61% 0 km/h 0 km/h 1014 hPa 0 mm/hr 0 mm
01:39 12.6°C 5.3°C 61% 0 km/h 0 km/h 1014 hPa 0 mm/hr 0 mm
01:34 12.8°C 5.3°C 60% 0 km/h 0 km/h 1014 hPa 0 mm/hr 0 mm
01:29 12.8°C 5.3°C 60% 0 km/h 0 km/h 1015 hPa 0 mm/hr 0 mm
01:24 12.9°C 5.4°C 60% 0 km/h 1.8 km/h 1015 hPa 0 mm/hr 0 mm
01:19 13°C 5.2°C 59% 0 km/h 2.1 km/h 1015 hPa 0 mm/hr 0 mm
01:14 13.1°C 5.3°C 59% 0 km/h 2.1 km/h 1015 hPa 0 mm/hr 0 mm
01:09 13.2°C 5.4°C 59% 0 km/h 2.6 km/h 1015 hPa 0 mm/hr 0 mm
01:04 13.3°C 5.5°C 59% 0 km/h 2.6 km/h 1015 hPa 0 mm/hr 0 mm
00:59 13.3°C 5.5°C 59% 2.6 km/h 3.2 km/h 1015 hPa 0 mm/hr 0 mm
00:54 13.3°C 5.7°C 60% 0 km/h 3.2 km/h 1015 hPa 0 mm/hr 0 mm
00:49 13.4°C 5.6°C 59% 0 km/h 0 km/h 1015 hPa 0 mm/hr 0 mm
00:44 13.5°C 5.7°C 59% 0 km/h 2.6 km/h 1015 hPa 0 mm/hr 0 mm
00:39 13.5°C 5.7°C 59% 0 km/h 2.6 km/h 1015 hPa 0 mm/hr 0 mm
00:34 13.6°C 5.8°C 59% 0 km/h 4.3 km/h 1015 hPa 0 mm/hr 0 mm
00:29 13.7°C 5.9°C 59% 0 km/h 4.3 km/h 1015 hPa 0 mm/hr 0 mm
00:24 13.8°C 6°C 59% 0 km/h 0 km/h 1015 hPa 0 mm/hr 0 mm
00:19 13.8°C 6°C 59% 0 km/h 1.8 km/h 1015 hPa 0 mm/hr 0 mm
00:14 13.9°C 6.1°C 59% 0 km/h 1.8 km/h 1014 hPa 0 mm/hr 0 mm
00:09 14.1°C 6°C 58% 0 km/h 2.6 km/h 1014 hPa 0 mm/hr 0 mm
00:04 14.2°C 6.1°C 58% 0 km/h 2.6 km/h 1014 hPa 0 mm/hr 0 mm